Theta_e
326 327 327 327 327 327 327 326 325 325 325 325 325 325 325 325 325 324 323 324 324 323 322 323 323 322 321 321 320 319 319 318 319 319 318 316 314 314 313 313 311 312
325 326 325 327 326 327 327 327 325 325 325 325 326 326 326 325 323 322 322 322 321 321 321 322 323 323 322 322 319 318 317 315 314 314 315 313 312 312 311 311 311 309
325 325 326 325 326 326 326 327 326 325 325 325 326 326 325 323 321 320 319 319 318 319 319 319 319 319 317 316 317 316 314 313 311 311 311 311 312 311 309 308 306 308
324 325 325 325 326 325 325 324 324 325 325 324 323 323 323 319 318 316 317 313 317 315 316 317 317 318 317 316 313 311 311 311 310 309 308 307 306 305 305 306 305 304
322 322 324 324 325 325 324 324 322 323 323 323 322 320 317 315 314 314 314 313 315 313 313 313 315 316 314 313 313 310 309 307 305 306 305 304 303 303 303 300 301 299
320 321 322 322 323 323 322 321 322 321 321 321 320 316 315 313 313 312 310 310 310 311 311 312 312 311 312 311 309 308 305 303 302 304 303 300 298 297 297 298 298 296
317 318 319 320 321 321 321 320 321 320 321 321 317 313 312 311 311 310 309 309 309 309 309 307 307 306 307 307 306 300 301 300 300 301 300 296 295 294 296 296 295 294
315 317 317 318 319 319 318 318 318 317 317 316 313 311 310 310 309 309 308 308 309 310 307 305 305 305 302 305 302 300 297 297 298 299 298 295 294 294 294 294 293 291
313 314 315 314 315 315 315 315 316 315 314 312 310 308 308 309 309 307 307 307 308 308 306 303 303 300 301 302 300 298 297 296 297 299 296 294 293 292 292 292 291 290
309 310 311 311 311 312 312 312 311 310 308 309 307 306 305 305 307 307 306 305 304 303 302 301 298 297 298 299 299 299 297 296 295 296 295 293 292 291 290 290 290 289
306 307 307 308 308 308 308 306 304 304 303 305 304 303 304 303 303 304 304 304 302 301 299 298 297 297 297 298 298 296 296 294 293 293 293 292 291 290 288 290 290 289
304 303 305 306 306 304 305 303 302 302 303 303 303 303 301 302 303 302 302 302 301 300 299 298 298 298 298 299 297 295 293 292 292 291 291 290 290 289 290 291 290 290
301 301 303 303 303 303 301 300 300 298 299 300 299 300 298 297 297 299 298 299 299 299 299 299 298 298 297 295 294 293 291 290 290 290 290 290 290 290 290 290 290 290
300 301 301 301 300 299 298 297 296 295 296 296 296 297 297 298 297 297 296 296 296 296 297 298 297 297 294 293 292 291 290 290 289 289 289 289 289 289 289 289 289 289
298 298 297 296 295 295 295 295 294 294 294 294 295 295 295 295 295 295 294 294 295 295 295 296 297 297 294 292 291 290 290 290 289 289 289 288 288 288 288 288 288 288
296 296 295 294 295 294 294 293 293 293 293 293 294 294 294 294 295 295 295 295 295 294 294 295 296 296 290 290 291 290 290 290 290 289 288 288 287 286 286 287 287 287
294 293 293 293 294 293 292 292 292 292 292 292 292 292 292 293 294 294 294 294 294 294 293 294 295 293 288 291 291 290 290 289 289 288 288 287 287 286 286 286 286 286
293 292 292 293 293 293 292 292 292 291 291 291 291 291 291 291 291 292 293 293 294 292 292 293 294 288 290 290 291 290 289 289 289 288 288 288 287 287 286 286 285 285
293 293 292 292 293 292 292 292 291 290 291 291 291 290 290 291 292 291 291 291 292 291 294 292 291 288 290 290 290 290 290 289 289 289 288 287 287 286 286 285 285 284
293 293 293 293 291 291 291 291 290 291 291 291 290 289 291 291 290 290 289 290 290 290 291 289 289 288 290 290 289 289 289 289 289 288 288 287 286 286 286 285 284 284
292 292 293 292 291 290 290 289 290 289 289 288 288 289 289 289 289 288 288 288 289 290 289 289 290 289 290 289 289 289 289 288 288 288 287 286 286 286 285 285 285 284
293 293 292 292 291 289 289 289 289 289 288 289 288 288 288 289 289 288 287 287 288 290 289 290 290 289 289 289 289 289 288 287 287 286 286 285 285 285 285 285 284 284
294 294 293 292 290 289 288 289 288 288 288 288 288 288 287 287 287 287 287 287 287 288 289 289 289 289 288 289 289 288 287 286 285 285 285 284 284 284 284 284 284 283
294 293 291 289 288 288 288 288 288 288 288 287 288 287 287 287 286 286 286 286 287 287 289 288 288 288 288 289 288 287 286 285 285 285 284 283 283 283 284 283 283 282
293 292 291 289 289 289 288 288 287 287 287 286 288 287 287 286 285 286 286 286 286 287 286 287 287 286 288 288 288 287 286 286 285 284 283 283 282 282 283 283 282 281
290 289 289 288 288 288 288 288 288 287 285 286 286 287 285 285 284 285 285 286 286 286 286 288 287 286 287 288 287 286 286 286 285 284 283 282 282 282 280 281 281 281
Wind_Speed
16 14 15 14 14 14 13 13 13 14 12 12 12 12 12 13 11 10 11 10 9 8 7 9 9 9 10 10 9 7 9 9 9 9 10 9 8 9 8 9 7 6
17 15 11 11 11 8 9 11 13 13 13 13 12 12 12 11 10 10 11 10 9 9 9 10 11 12 12 11 9 8 8 9 9 6 9 7 7 9 7 9 8 5
16 14 13 12 11 7 8 9 12 11 12 13 13 12 10 9 8 9 8 10 9 9 10 10 11 11 10 8 8 6 7 8 8 8 8 9 8 8 7 7 5 8
12 10 11 10 10 9 7 10 10 11 11 11 11 10 8 8 8 10 9 10 10 8 9 10 9 9 8 10 8 7 8 8 7 7 7 5 5 6 7 7 6 6
13 12 12 13 12 11 10 12 11 11 11 11 10 8 8 9 8 9 9 9 9 9 8 9 9 11 7 8 9 7 7 7 6 8 7 7 5 5 7 6 7 6
11 11 10 10 10 10 10 11 12 11 11 10 10 9 10 12 10 10 10 10 9 10 10 10 10 8 9 9 7 7 8 7 7 7 9 8 6 5 5 5 7 7
9 9 10 8 9 10 10 10 11 11 11 10 8 9 9 10 10 11 11 11 11 10 12 10 10 8 8 8 9 9 7 9 8 8 10 6 6 6 5 7 7 7
10 8 7 8 9 9 9 9 9 9 9 8 9 9 10 10 10 10 10 10 11 13 11 11 10 10 10 9 11 11 9 6 7 10 9 8 7 7 7 5 6 8
8 7 6 7 8 7 8 8 8 8 7 9 8 7 7 9 10 10 10 10 10 11 10 11 10 9 9 10 10 10 9 7 8 10 8 9 9 9 8 8 7 7
7 5 6 6 7 6 7 6 5 5 5 6 7 7 8 6 8 11 11 11 10 8 10 10 9 10 9 9 10 10 9 9 9 9 8 8 9 9 9 9 8 8
6 5 6 6 7 5 6 5 5 5 5 7 6 7 8 8 7 7 10 11 11 11 10 9 10 10 9 9 8 7 8 8 8 8 8 8 8 8 9 8 8 8
5 4 6 7 6 5 5 5 5 6 6 6 7 9 8 8 10 9 10 10 10 11 10 9 9 9 11 10 8 8 7 7 6 7 8 8 8 7 7 6 7 8
5 6 5 5 5 5 4 4 5 4 5 6 6 7 8 8 6 8 6 7 8 10 12 12 11 10 8 8 8 8 8 8 8 8 8 7 7 7 6 6 6 7
7 6 5 5 3 3 4 4 3 4 4 4 4 7 8 8 9 9 6 5 7 8 8 9 9 9 7 8 8 9 9 8 8 9 9 8 7 7 6 6 6 6
5 4 4 4 4 4 4 5 5 4 4 5 5 5 5 5 5 5 8 8 5 6 7 7 8 9 9 9 10 10 9 9 9 9 10 10 8 8 6 6 6 6
4 4 4 4 5 5 5 5 5 5 6 6 6 5 6 6 7 7 8 9 10 7 7 7 7 7 10 15 14 11 10 8 8 9 9 9 10 9 8 7 6 6
4 3 4 5 5 4 4 5 5 5 4 4 5 6 7 6 7 8 7 6 9 11 10 7 7 7 15 16 15 16 10 10 10 9 9 9 9 10 9 9 7 7
5 4 5 5 5 6 6 5 6 6 6 6 6 7 6 6 6 7 7 9 8 8 9 9 9 11 18 14 11 14 13 10 9 9 9 8 8 9 8 8 9 8
6 7 6 5 5 6 6 6 6 6 6 8 8 6 6 8 8 8 8 7 8 10 10 9 7 13 17 14 13 12 13 12 8 8 9 8 8 8 9 8 8 8
7 7 7 6 5 5 5 6 6 7 7 5 4 5 7 7 6 8 7 8 8 9 8 6 7 13 14 14 13 13 13 11 7 9 8 8 8 8 8 9 9 8
7 7 7 6 6 6 5 4 6 3 4 3 4 6 7 7 8 7 7 5 8 8 7 7 7 14 13 15 15 15 12 10 7 7 7 7 7 7 7 8 8 7
7 7 6 6 6 5 5 4 4 5 6 4 4 3 2 2 4 4 8 8 6 8 7 8 8 15 14 14 16 16 14 8 8 8 7 7 7 6 6 6 7 7
8 7 7 7 5 5 6 6 6 5 4 4 4 4 5 5 5 5 5 6 8 5 8 8 9 15 18 16 16 18 12 6 6 6 6 7 7 6 6 6 6 7
7 8 6 6 6 7 7 5 4 4 5 5 7 7 6 6 5 3 2 4 9 9 8 8 7 14 18 15 17 17 12 7 7 7 7 6 7 6 5 5 6 8
7 6 5 7 7 7 7 7 7 6 4 5 4 5 6 6 5 6 5 3 4 6 10 7 5 11 17 14 17 15 11 6 7 7 8 7 7 7 6 5 6 8
5 6 6 7 8 6 6 6 5 6 7 7 4 5 6 5 5 4 8 5 5 5 6 7 7 8 12 15 16 16 14 8 7 9 9 8 7 7 7 6 7 7
Wind_Direction
224 223 224 222 224 224 220 214 211 209 203 202 203 203 203 207 204 196 198 199 193 189 182 182 177 172 172 170 167 165 178 176 180 181 170 163 162 162 162 166 164 166
224 225 225 225 226 215 217 212 210 208 207 205 206 205 208 202 196 191 193 191 185 186 180 182 181 177 176 180 172 165 161 170 170 173 167 153 146 166 155 167 171 151
225 223 221 220 223 210 205 207 211 208 212 211 209 208 199 190 185 186 184 182 179 182 178 179 175 175 170 161 161 164 161 156 168 168 161 164 167 172 161 160 143 168
224 219 220 219 218 216 200 208 209 211 212 208 206 202 194 182 183 179 181 178 179 174 176 173 170 174 164 162 155 159 169 168 155 156 150 131 137 132 155 163 147 158
220 217 218 219 216 213 210 210 205 204 203 203 198 191 177 170 179 180 179 180 176 171 172 170 172 176 158 158 163 140 161 162 154 158 142 149 147 137 156 141 156 154
224 218 213 210 207 204 205 206 207 201 202 199 195 182 186 177 178 178 175 175 175 173 171 171 172 171 167 157 154 157 151 156 158 154 151 145 140 141 140 144 149 154
223 216 216 211 211 210 208 207 208 205 205 201 178 188 177 180 181 179 177 177 172 172 171 167 164 162 161 154 161 128 146 147 154 153 156 139 132 136 140 148 153 144
233 222 217 215 214 210 213 208 206 203 198 187 186 185 181 181 180 178 177 176 173 174 171 168 164 164 159 157 133 149 144 157 159 164 158 150 141 145 156 144 139 142
237 228 215 217 216 215 214 210 208 200 191 187 186 178 184 181 177 173 174 176 174 171 160 163 164 155 156 151 151 159 160 164 170 171 155 151 155 154 154 148 146 146
236 230 222 217 220 218 217 213 205 196 179 187 178 167 173 181 181 175 173 175 169 163 160 160 151 152 145 151 158 164 166 164 163 162 158 154 151 148 154 160 154 143
231 227 225 225 225 217 216 198 188 174 175 177 166 174 179 170 176 179 175 174 169 161 155 158 153 152 151 157 160 155 158 157 158 155 152 145 142 150 157 155 154 148
235 225 228 225 220 217 208 195 183 180 180 180 178 178 176 181 175 176 179 180 170 159 154 156 154 154 162 162 151 151 148 144 143 142 137 135 140 147 157 153 150 145
207 213 221 219 212 207 193 183 188 184 178 181 182 175 171 170 174 175 176 169 165 158 157 159 160 159 153 146 141 143 145 144 144 139 133 133 141 146 147 142 137 143
208 209 210 210 193 173 175 178 167 169 179 162 160 168 174 178 173 171 163 158 160 158 154 151 150 153 135 139 142 149 149 150 148 144 140 134 134 137 139 138 138 144
172 181 151 134 153 159 165 169 172 167 157 160 168 169 164 160 143 140 143 140 143 143 145 151 153 161 162 157 154 157 154 150 150 145 143 141 139 138 135 136 142 143
151 176 160 159 158 173 177 168 165 165 162 163 164 159 155 153 154 157 161 156 152 148 150 156 162 165 173 170 166 158 153 149 145 146 145 144 143 142 143 148 147 140
168 178 166 181 182 166 158 160 157 150 147 144 145 149 149 155 157 156 157 158 158 155 158 169 171 173 167 170 165 163 152 150 150 149 147 148 152 153 154 152 147 138
175 172 183 190 173 175 173 168 153 152 154 150 146 148 147 141 156 160 154 156 157 155 167 169 178 167 169 163 155 160 163 152 150 148 152 152 156 156 152 151 148 147
171 177 185 185 192 174 165 156 159 157 156 159 164 158 149 160 165 160 160 163 164 161 173 168 168 165 168 159 158 158 161 158 150 150 151 154 156 157 155 153 151 150
177 181 184 185 177 170 162 161 166 172 170 169 152 151 164 163 159 162 159 170 169 168 162 154 154 168 160 157 158 157 158 161 145 149 150 150 155 156 157 157 159 156
181 185 183 174 171 166 169 171 169 160 154 154 161 170 168 169 165 167 172 172 170 169 159 161 164 164 159 158 160 162 153 152 142 140 140 143 147 153 155 157 157 155
182 182 181 175 171 169 170 174 171 168 169 161 156 161 139 150 178 172 166 171 174 168 154 163 161 165 159 157 160 159 152 151 147 146 141 142 147 153 152 155 157 157
189 183 181 177 173 174 179 176 173 168 163 163 161 166 167 173 175 173 173 168 169 166 163 160 161 172 169 163 160 157 153 151 144 140 141 144 152 153 155 156 161 164
191 187 177 174 174 185 183 181 174 173 172 172 172 167 176 176 164 151 154 176 175 179 176 164 164 173 172 162 162 162 162 148 149 143 139 147 146 155 158 161 161 163
191 188 183 177 182 187 181 177 177 176 163 168 178 168 169 168 160 170 171 172 184 183 177 171 151 169 174 165 165 165 159 153 149 142 149 157 157 159 164 161 161 171
183 184 186 182 188 183 181 181 168 165 167 177 171 170 163 161 165 171 172 173 169 175 175 180 164 170 176 168 170 171 172 163 155 152 161 159 163 163 160 170 169 175